Location: STAR School
(35.3054°N, 111.2976°W)
Time: 15:43:21
(UTC-07:00)

S-56A Canister/Altair - All Passes

Search period start: 20 May 2019 00:00
Search period end: 30 May 2019 00:00
Orbit: 633 x 2500 km, 38.9° (Epoch: 17 May)

Date Brightness Start Highest point End Pass type
(mag) Time Alt. Az. Time Alt. Az. Time Alt. Az.
20 May - 00:41:22 10° S 00:46:06 26° SE 00:52:26 10° E visible
20 May - 02:42:43 10° WSW 02:49:29 83° SSE 03:00:06 10° ENE visible
20 May - 04:46:27 10° W 04:55:05 73° N 05:08:09 10° E visible
20 May - 06:50:44 10° WNW 07:01:36 89° SSW 07:16:27 10° ESE daylight
20 May - 08:55:47 10° WNW 09:07:53 50° SW 09:22:07 10° SSE daylight
20 May - 11:04:49 10° W 11:13:07 18° SW 11:21:41 10° SSW daylight
21 May - 00:09:39 10° S 00:13:38 20° SE 00:18:38 10° E visible
21 May - 02:10:22 10° WSW 02:16:40 76° SSE 02:26:26 10° ENE visible
21 May - 04:13:53 10° W 04:21:53 73° N 04:34:14 10° E visible
21 May - 06:18:00 10° WNW 06:28:11 88° NNE 06:42:39 10° ESE daylight
21 May - 08:22:44 10° WNW 08:34:26 54° SSW 08:48:52 10° SE daylight
21 May - 10:30:40 10° W 10:39:52 21° SW 10:49:38 10° S daylight
21 May - 23:38:14 10° SSE 23:41:12 15° SE 23:44:40 10° E visible
22 May - 01:38:04 10° SW 01:43:55 68° SSE 01:52:50 10° ENE visible
22 May - 03:41:21 10° W 03:48:47 73° N 04:00:21 10° E visible
22 May - 05:45:20 10° WNW 05:54:51 84° NNE 06:08:47 10° ESE daylight
22 May - 07:49:47 10° WNW 08:01:01 58° SSW 08:15:29 10° SE daylight
22 May - 09:56:50 10° W 10:06:34 24° SW 10:17:16 10° S daylight
22 May - 23:07:47 10° SE 23:08:47 10° SE 23:09:49 10° ESE night (unlit)
23 May - 01:05:50 10° SW 01:11:15 58° SSE 01:19:19 10° ENE visible
23 May - 03:08:53 10° W 03:15:46 73° N 03:26:33 10° ENE visible
23 May - 05:12:44 10° WNW 05:21:35 80° NNE 05:34:54 10° ESE daylight
23 May - 07:16:56 10° WNW 07:27:37 63° SSW 07:42:00 10° SE daylight
23 May - 09:23:16 10° W 09:33:16 27° SW 09:44:40 10° S daylight
24 May - 00:33:38 10° SW 00:38:40 49° SSE 00:45:52 10° ENE visible
24 May - 02:36:26 10° W 02:42:51 75° N 02:52:49 10° ENE visible
24 May - 04:40:10 10° WNW 04:48:24 77° NNE 05:01:00 10° E visible
24 May - 06:44:10 10° WNW 06:54:17 67° SSW 07:08:26 10° SE daylight
24 May - 08:49:54 10° W 08:59:58 30° SW 09:11:52 10° SSE daylight
25 May - 00:01:30 10° SW 00:06:09 40° SE 00:12:30 10° ENE visible
25 May - 02:04:01 10° W 02:09:59 78° NNW 02:19:10 10° ENE visible
25 May - 04:07:40 10° WNW 04:15:18 74° N 04:27:06 10° E visible
25 May - 06:11:29 10° WNW 06:21:00 71° SSW 06:34:47 10° SE daylight
25 May - 08:16:43 10° W 08:26:39 33° SW 08:38:55 10° SSE daylight
25 May - 23:29:24 10° SSW 23:33:41 32° SE 23:39:11 10° E visible
26 May - 01:31:38 10° WSW 01:37:13 81° NNW 01:45:39 10° ENE visible
26 May - 03:35:11 10° WNW 03:42:15 71° N 03:53:15 10° E visible
26 May - 05:38:52 10° WNW 05:47:47 76° SSW 06:01:05 10° ESE daylight
26 May - 07:43:40 10° W 07:53:22 36° SW 08:05:49 10° SSE daylight
26 May - 22:57:23 10° SSW 23:01:14 26° SE 23:05:55 10° E visible
27 May - 00:59:16 10° WSW 01:04:30 87° NNW 01:12:13 10° ENE visible
27 May - 03:02:44 10° W 03:09:18 69° N 03:19:28 10° E visible
27 May - 05:06:19 10° WNW 05:14:38 81° SSW 05:27:20 10° ESE daylight
27 May - 07:10:45 10° W 07:20:07 39° SW 07:32:36 10° SSE daylight
27 May - 09:21:28 10° WSW 09:25:24 12° SW 09:29:34 10° SSW daylight
27 May - 22:25:29 10° S 22:28:49 20° SE 22:32:37 10° E night (unlit)
28 May - 00:26:55 10° WSW 00:31:52 86° SSE 00:38:54 10° ENE visible
28 May - 02:30:20 10° W 02:36:25 67° N 02:45:45 10° E visible
28 May - 04:33:49 10° WNW 04:41:34 86° SSW 04:53:34 10° ESE visible
28 May - 06:37:56 10° W 06:46:54 42° SSW 06:59:17 10° SSE daylight
28 May - 08:46:46 10° WSW 08:52:12 14° SW 08:58:13 10° SSW daylight
28 May - 21:53:44 10° S 21:56:23 15° SE 21:59:14 10° ESE night (unlit)
28 May - 23:54:34 10° WSW 23:59:17 77° SSE 00:05:42 10° ENE visible
29 May - 01:57:55 10° W 02:03:36 66° N 02:12:09 10° E visible
29 May - 04:01:20 10° WNW 04:08:34 90° NNE 04:19:49 10° ESE visible
29 May - 06:05:13 10° W 06:13:45 46° SSW 06:25:54 10° SE daylight
29 May - 08:12:48 10° WSW 08:19:02 16° SW 08:26:11 10° S daylight
29 May - 21:22:20 10° SSE 21:23:56 12° SE 21:25:35 10° ESE night (unlit)
29 May - 23:22:14 10° WSW 23:26:45 67° SSE 23:32:35 10° ENE visible
